Location: Lecco
(45.8566°N, 9.3977°E)
Time: 07:58:05
(UTC+02:00)

Altair - Pass Details

Date: 18 August 2020
Orbit: 1501 x 1682 km, 47.2° (Epoch: 25 September)

Event Time Altitude Azimuth Distance (km) Brightness Sun altitude
Rises 07:53:57 0° 292° (WNW) 4,727 9.5 14.0°
Reaches altitude 10° 07:57:09 10° 288° (WNW) 3,720 9.0 14.6°
Maximum altitude 08:06:02 51° 216° (SW) 1,838 7.9 16.1°
Drops below altitude 10° 08:14:44 10° 144° (SE) 3,643 10.1 17.6°
Sets 08:17:50 0° 139° (SE) 4,624 10.6 18.2°
